Time,TemperatureF,DewpointF,PressureIn,WindDirection,WindDirectionDegrees,WindSpeedMPH,WindSpeedGustMPH,Humidity,HourlyPrecipIn,Conditions,Clouds,dailyrainin,SoftwareType,DateUTC
2013-02-04 00:00:00,42.8,24.5,30.10,SW,225,3.4,7.2,48,0.00,,,0.00,WUHU216HW,2013-02-04 08:00:00,
2013-02-04 00:05:00,42.8,24.5,30.10,SSW,203,7.8,10.5,48,0.00,,,0.00,WUHU216HW,2013-02-04 08:05:00,
2013-02-04 00:10:00,43.0,24.1,30.10,WSW,248,4.5,10.5,47,0.00,,,0.00,WUHU216HW,2013-02-04 08:10:00,
2013-02-04 00:15:00,43.0,24.1,30.09,SSW,203,10.3,10.3,47,0.00,,,0.00,WUHU216HW,2013-02-04 08:15:00,
2013-02-04 00:20:00,43.0,24.7,30.09,SW,225,2.9,10.3,48,0.00,,,0.00,WUHU216HW,2013-02-04 08:20:00,
2013-02-04 00:25:00,42.8,24.5,30.09,SW,225,4.7,11.9,48,0.00,,,0.00,WUHU216HW,2013-02-04 08:25:00,
2013-02-04 00:30:00,42.8,24.5,30.09,West,270,4.5,11.9,48,0.00,,,0.00,WUHU216HW,2013-02-04 08:30:00,
2013-02-04 00:35:00,42.8,24.5,30.10,WSW,248,3.1,6.9,48,0.00,,,0.00,WUHU216HW,2013-02-04 08:35:00,
2013-02-04 00:40:00,42.8,24.5,30.09,West,270,3.4,6.7,48,0.00,,,0.00,WUHU216HW,2013-02-04 08:40:00,
2013-02-04 00:46:00,42.8,23.9,30.09,WSW,248,4.5,6.7,47,0.00,,,0.00,WUHU216HW,2013-02-04 08:46:00,
2013-02-04 00:51:00,42.8,24.5,30.09,SSW,203,6.9,6.9,48,0.00,,,0.00,WUHU216HW,2013-02-04 08:51:00,
2013-02-04 00:56:00,42.8,23.9,30.09,SW,225,5.4,6.9,47,0.00,,,0.00,WUHU216HW,2013-02-04 08:56:00,
2013-02-04 01:01:00,42.8,23.9,30.09,WSW,248,4.7,9.2,47,0.00,,,0.00,WUHU216HW,2013-02-04 09:01:00,
2013-02-04 01:06:00,42.8,23.9,30.09,WSW,248,2.7,9.2,47,0.00,,,0.00,WUHU216HW,2013-02-04 09:06:00,
2013-02-04 01:11:00,42.7,23.8,30.09,WSW,248,0.9,3.4,47,0.00,,,0.00,WUHU216HW,2013-02-04 09:11:00,
2013-02-04 01:16:00,42.7,23.8,30.09,WSW,248,2.2,4.0,47,0.00,,,0.00,WUHU216HW,2013-02-04 09:16:00,
2013-02-04 01:21:00,42.5,23.6,30.09,WSW,248,2.9,5.1,47,0.00,,,0.00,WUHU216HW,2013-02-04 09:21:00,
2013-02-04 01:26:00,42.3,23.4,30.10,SSW,203,3.4,5.8,47,0.00,,,0.00,WUHU216HW,2013-02-04 09:26:00,
2013-02-04 01:31:00,42.1,23.8,30.10,SW,225,4.7,5.8,48,0.00,,,0.00,WUHU216HW,2013-02-04 09:31:00,
2013-02-04 01:36:00,41.9,23.6,30.10,SSW,203,2.0,4.7,48,0.00,,,0.00,WUHU216HW,2013-02-04 09:36:00,
2013-02-04 01:41:00,41.6,23.8,30.10,SSW,203,0.7,2.0,49,0.00,,,0.00,WUHU216HW,2013-02-04 09:41:00,
2013-02-04 01:46:00,41.2,23.4,30.10,SW,225,2.0,4.3,49,0.00,,,0.00,WUHU216HW,2013-02-04 09:46:00,
2013-02-04 01:51:00,41.0,23.2,30.10,West,270,2.2,5.8,49,0.00,,,0.00,WUHU216HW,2013-02-04 09:51:00,
2013-02-04 01:56:00,41.0,23.2,30.10,WSW,248,7.6,7.6,49,0.00,,,0.00,WUHU216HW,2013-02-04 09:56:00,
2013-02-04 02:01:00,41.0,23.2,30.09,WSW,248,4.9,7.6,49,0.00,,,0.00,WUHU216HW,2013-02-04 10:01:00,
2013-02-04 02:07:00,40.7,23.0,30.09,West,270,1.1,5.4,49,0.00,,,0.00,WUHU216HW,2013-02-04 10:07:00,
2013-02-04 02:12:00,40.7,23.0,30.10,WNW,293,1.1,4.5,49,0.00,,,0.00,WUHU216HW,2013-02-04 10:12:00,
2013-02-04 02:17:00,40.7,23.0,30.10,NNW,338,2.5,3.4,49,0.00,,,0.00,WUHU216HW,2013-02-04 10:17:00,
2013-02-04 02:22:00,40.7,23.0,30.10,North,0,1.3,2.9,49,0.00,,,0.00,WUHU216HW,2013-02-04 10:22:00,
2013-02-04 02:27:00,40.5,22.8,30.10,NNE,23,0.2,2.9,49,0.00,,,0.00,WUHU216HW,2013-02-04 10:27:00,
2013-02-04 02:32:00,40.5,22.8,30.09,WNW,293,0.4,4.9,49,0.00,,,0.00,WUHU216HW,2013-02-04 10:32:00,
2013-02-04 02:37:00,40.3,22.6,30.09,North,0,2.5,4.9,49,0.00,,,0.00,WUHU216HW,2013-02-04 10:37:00,
2013-02-04 02:42:00,40.3,23.1,30.09,WNW,293,1.1,3.1,50,0.00,,,0.00,WUHU216HW,2013-02-04 10:42:00,
2013-02-04 02:47:00,40.1,23.0,30.09,NNW,338,2.0,2.7,50,0.00,,,0.00,WUHU216HW,2013-02-04 10:47:00,
2013-02-04 02:52:00,40.0,22.8,30.09,SW,225,1.1,4.3,50,0.00,,,0.00,WUHU216HW,2013-02-04 10:52:00,
2013-02-04 02:57:00,39.8,22.6,30.09,SSW,203,4.0,6.3,50,0.00,,,0.00,WUHU216HW,2013-02-04 10:57:00,
2013-02-04 03:02:00,39.8,22.6,30.09,SSW,203,1.8,6.3,50,0.00,,,0.00,WUHU216HW,2013-02-04 11:02:00,
2013-02-04 03:07:00,39.8,22.6,30.09,WSW,248,2.5,4.9,50,0.00,,,0.00,WUHU216HW,2013-02-04 11:07:00,
2013-02-04 03:12:00,39.6,22.5,30.09,WNW,293,2.2,5.4,50,0.00,,,0.00,WUHU216HW,2013-02-04 11:12:00,
2013-02-04 03:17:00,39.6,22.5,30.08,WSW,248,2.2,5.4,50,0.00,,,0.00,WUHU216HW,2013-02-04 11:17:00,
2013-02-04 03:22:00,39.4,22.3,30.08,SW,225,3.6,4.7,50,0.00,,,0.00,WUHU216HW,2013-02-04 11:22:00,
2013-02-04 03:27:00,39.2,22.1,30.07,West,270,0.0,6.5,50,0.00,,,0.00,WUHU216HW,2013-02-04 11:27:00,
2013-02-04 03:32:00,39.2,22.1,30.08,West,270,2.7,6.5,50,0.00,,,0.00,WUHU216HW,2013-02-04 11:32:00,
2013-02-04 03:38:00,39.4,22.3,30.08,SW,225,4.7,4.7,50,0.00,,,0.00,WUHU216HW,2013-02-04 11:38:00,
2013-02-04 03:43:00,39.4,22.3,30.08,West,270,1.8,7.4,50,0.00,,,0.00,WUHU216HW,2013-02-04 11:43:00,
2013-02-04 03:48:00,39.2,22.1,30.08,North,0,0.2,7.4,50,0.00,,,0.00,WUHU216HW,2013-02-04 11:48:00,
2013-02-04 03:53:00,39.2,22.1,30.08,SW,225,0.4,4.7,50,0.00,,,0.00,WUHU216HW,2013-02-04 11:53:00,
2013-02-04 03:58:00,39.2,22.1,30.07,South,180,2.5,7.6,50,0.00,,,0.00,WUHU216HW,2013-02-04 11:58:00,
2013-02-04 04:03:00,39.2,22.1,30.08,West,270,2.7,7.6,50,0.00,,,0.00,WUHU216HW,2013-02-04 12:03:00,
2013-02-04 04:08:00,39.2,22.1,30.08,SW,225,3.1,6.0,50,0.00,,,0.00,WUHU216HW,2013-02-04 12:08:00,
2013-02-04 04:13:00,39.4,22.3,30.07,NNW,338,3.4,6.9,50,0.00,,,0.00,WUHU216HW,2013-02-04 12:13:00,
2013-02-04 04:18:00,39.6,22.5,30.07,WSW,248,1.3,6.9,50,0.00,,,0.00,WUHU216HW,2013-02-04 12:18:00,
2013-02-04 04:23:00,39.6,22.5,30.07,West,270,2.7,4.3,50,0.00,,,0.00,WUHU216HW,2013-02-04 12:23:00,
2013-02-04 04:28:00,39.6,22.0,30.07,West,270,4.3,4.5,49,0.00,,,0.00,WUHU216HW,2013-02-04 12:28:00,
2013-02-04 04:33:00,39.8,22.6,30.07,SW,225,4.5,5.4,50,0.00,,,0.00,WUHU216HW,2013-02-04 12:33:00,
2013-02-04 04:38:00,40.0,22.2,30.07,WSW,248,6.5,7.6,49,0.00,,,0.00,WUHU216HW,2013-02-04 12:38:00,
2013-02-04 04:43:00,40.0,22.2,30.07,West,270,2.9,7.6,49,0.00,,,0.00,WUHU216HW,2013-02-04 12:43:00,
2013-02-04 04:48:00,40.1,22.4,30.07,WSW,248,2.5,4.3,49,0.00,,,0.00,WUHU216HW,2013-02-04 12:48:00,
2013-02-04 04:53:00,40.1,22.4,30.07,West,270,1.1,4.0,49,0.00,,,0.00,WUHU216HW,2013-02-04 12:53:00,
2013-02-04 04:58:00,40.1,22.4,30.07,WSW,248,0.7,3.6,49,0.00,,,0.00,WUHU216HW,2013-02-04 12:58:00,
2013-02-04 05:03:00,40.0,22.2,30.07,WSW,248,2.2,2.9,49,0.00,,,0.00,WUHU216HW,2013-02-04 13:03:00,
2013-02-04 05:08:00,40.0,22.2,30.06,West,270,4.7,4.7,49,0.00,,,0.00,WUHU216HW,2013-02-04 13:08:00,
2013-02-04 05:13:00,40.0,22.2,30.06,WNW,293,4.0,4.7,49,0.00,,,0.00,WUHU216HW,2013-02-04 13:13:00,
2013-02-04 05:19:00,40.0,22.2,30.06,West,270,2.5,4.0,49,0.00,,,0.00,WUHU216HW,2013-02-04 13:19:00,
2013-02-04 05:24:00,39.8,22.2,30.06,SW,225,4.0,4.0,49,0.00,,,0.00,WUHU216HW,2013-02-04 13:24:00,
2013-02-04 05:29:00,39.8,22.2,30.06,WSW,248,0.4,4.0,49,0.00,,,0.00,WUHU216HW,2013-02-04 13:29:00,
2013-02-04 05:34:00,39.6,22.0,30.06,WSW,248,4.5,4.5,49,0.00,,,0.00,WUHU216HW,2013-02-04 13:34:00,
2013-02-04 05:39:00,39.4,21.8,30.06,WSW,248,1.1,4.5,49,0.00,,,0.00,WUHU216HW,2013-02-04 13:39:00,
2013-02-04 05:44:00,39.4,21.2,30.06,West,270,1.8,5.6,48,0.00,,,0.00,WUHU216HW,2013-02-04 13:44:00,
2013-02-04 05:49:00,39.6,21.4,30.06,West,270,5.4,5.6,48,0.00,,,0.00,WUHU216HW,2013-02-04 13:49:00,
2013-02-04 05:54:00,39.6,22.0,30.06,SW,225,1.1,5.4,49,0.00,,,0.00,WUHU216HW,2013-02-04 13:54:00,
2013-02-04 05:59:00,39.8,21.6,30.07,NW,315,2.5,3.6,48,0.00,,,0.00,WUHU216HW,2013-02-04 13:59:00,
2013-02-04 06:04:00,39.8,21.6,30.07,West,270,3.4,3.6,48,0.00,,,0.00,WUHU216HW,2013-02-04 14:04:00,
2013-02-04 06:09:00,39.8,21.1,30.07,NW,315,1.1,3.4,47,0.00,,,0.00,WUHU216HW,2013-02-04 14:09:00,
2013-02-04 06:14:00,39.8,21.1,30.07,WNW,293,2.0,3.6,47,0.00,,,0.00,WUHU216HW,2013-02-04 14:14:00,
2013-02-04 06:19:00,39.8,21.1,30.07,NW,315,0.7,3.6,47,0.00,,,0.00,WUHU216HW,2013-02-04 14:19:00,
2013-02-04 06:24:00,39.6,20.9,30.07,NW,315,2.0,3.1,47,0.00,,,0.00,WUHU216HW,2013-02-04 14:24:00,
2013-02-04 06:29:00,39.6,20.9,30.07,West,270,2.0,3.6,47,0.00,,,0.00,WUHU216HW,2013-02-04 14:29:00,
2013-02-04 06:35:00,39.6,20.3,30.07,WNW,293,1.1,3.6,46,0.00,,,0.00,WUHU216HW,2013-02-04 14:35:00,
2013-02-04 06:40:00,39.8,20.5,30.07,West,270,0.7,3.4,46,0.00,,,0.00,WUHU216HW,2013-02-04 14:40:00,
2013-02-04 06:45:00,39.8,20.5,30.07,WSW,248,0.0,1.8,46,0.00,,,0.00,WUHU216HW,2013-02-04 14:45:00,
2013-02-04 06:50:00,39.6,20.9,30.07,NW,315,0.0,1.8,47,0.00,,,0.00,WUHU216HW,2013-02-04 14:50:00,
2013-02-04 06:55:00,39.2,20.1,30.07,West,270,0.0,1.1,46,0.00,,,0.00,WUHU216HW,2013-02-04 14:55:00,
2013-02-04 07:00:00,39.2,20.1,30.07,West,270,0.2,3.1,46,0.00,,,0.00,WUHU216HW,2013-02-04 15:00:00,
2013-02-04 07:05:00,39.2,20.6,30.07,West,270,0.4,3.1,47,0.00,,,0.00,WUHU216HW,2013-02-04 15:05:00,
2013-02-04 07:10:00,39.2,20.1,30.06,NW,315,1.1,2.2,46,0.00,,,0.00,WUHU216HW,2013-02-04 15:10:00,
2013-02-04 07:15:00,39.2,20.1,30.06,NW,315,0.4,2.2,46,0.00,,,0.00,WUHU216HW,2013-02-04 15:15:00,
2013-02-04 07:20:00,38.9,19.7,30.06,NW,315,0.0,1.3,46,0.00,,,0.00,WUHU216HW,2013-02-04 15:20:00,
2013-02-04 07:25:00,38.5,19.9,30.06,NNW,338,0.0,1.3,47,0.00,,,0.00,WUHU216HW,2013-02-04 15:25:00,
2013-02-04 07:30:00,38.3,20.3,30.07,North,0,0.2,0.7,48,0.00,,,0.00,WUHU216HW,2013-02-04 15:30:00,
2013-02-04 07:36:00,38.2,20.2,30.07,NNW,338,0.0,0.2,48,0.00,,,0.00,WUHU216HW,2013-02-04 15:36:00,
2013-02-04 07:41:00,38.2,20.6,30.07,NNW,338,0.0,0.2,49,0.00,,,0.00,WUHU216HW,2013-02-04 15:41:00,
2013-02-04 07:46:00,38.2,20.6,30.07,North,0,0.2,0.4,49,0.00,,,0.00,WUHU216HW,2013-02-04 15:46:00,
2013-02-04 07:50:00,38.2,21.2,30.07,North,0,0.0,0.4,50,0.00,,,0.00,WUHU216HW,2013-02-04 15:50:00,
2013-02-04 07:56:00,38.0,21.0,30.07,ESE,113,0.0,1.1,50,0.00,,,0.00,WUHU216HW,2013-02-04 15:56:00,
2013-02-04 08:01:00,38.0,21.0,30.07,South,180,0.0,1.1,50,0.00,,,0.00,WUHU216HW,2013-02-04 16:01:00,
2013-02-04 08:06:00,38.0,21.0,30.07,SSW,203,0.4,0.9,50,0.00,,,0.00,WUHU216HW,2013-02-04 16:06:00,
2013-02-04 08:11:00,38.2,21.2,30.07,SSE,158,0.0,1.8,50,0.00,,,0.00,WUHU216HW,2013-02-04 16:11:00,
2013-02-04 08:16:00,38.5,21.0,30.07,NNW,338,0.7,1.8,49,0.00,,,0.00,WUHU216HW,2013-02-04 16:16:00,
2013-02-04 08:21:00,38.7,21.2,30.07,South,180,0.4,0.9,49,0.00,,,0.00,WUHU216HW,2013-02-04 16:21:00,
2013-02-04 08:26:00,38.9,21.3,30.08,West,270,1.1,2.5,49,0.00,,,0.00,WUHU216HW,2013-02-04 16:26:00,
2013-02-04 08:31:00,39.1,21.0,30.08,SSW,203,0.7,2.5,48,0.00,,,0.00,WUHU216HW,2013-02-04 16:31:00,
2013-02-04 08:36:00,39.2,21.1,30.08,NNW,338,0.0,1.3,48,0.00,,,0.00,WUHU216HW,2013-02-04 16:36:00,
2013-02-04 08:41:00,39.4,21.2,30.08,SE,135,1.3,1.3,48,0.00,,,0.00,WUHU216HW,2013-02-04 16:41:00,
2013-02-04 08:46:00,39.8,22.2,30.08,SSE,158,0.4,1.6,49,0.00,,,0.00,WUHU216HW,2013-02-04 16:46:00,
2013-02-04 08:51:00,40.0,22.2,30.09,SW,225,0.9,2.0,49,0.00,,,0.00,WUHU216HW,2013-02-04 16:51:00,
2013-02-04 08:56:00,40.5,22.8,30.09,NNW,338,0.7,2.5,49,0.00,,,0.00,WUHU216HW,2013-02-04 16:56:00,
2013-02-04 09:01:00,40.7,23.0,30.08,SSW,203,1.6,2.5,49,0.00,,,0.00,WUHU216HW,2013-02-04 17:01:00,
2013-02-04 09:06:00,40.9,23.0,30.08,WSW,248,2.2,2.2,49,0.00,,,0.00,WUHU216HW,2013-02-04 17:06:00,
2013-02-04 09:11:00,41.2,23.4,30.08,South,180,2.0,2.2,49,0.00,,,0.00,WUHU216HW,2013-02-04 17:11:00,
2013-02-04 09:16:00,41.4,23.6,30.08,WSW,248,0.7,3.1,49,0.00,,,0.00,WUHU216HW,2013-02-04 17:16:00,
2013-02-04 09:21:00,41.6,23.8,30.08,WSW,248,2.2,3.1,49,0.00,,,0.00,WUHU216HW,2013-02-04 17:21:00,
2013-02-04 09:26:00,41.8,23.9,30.08,SSW,203,4.7,4.7,49,0.00,,,0.00,WUHU216HW,2013-02-04 17:26:00,
2013-02-04 09:31:00,42.1,24.3,30.08,SSW,203,1.8,4.7,49,0.00,,,0.00,WUHU216HW,2013-02-04 17:31:00,
2013-02-04 09:36:00,42.3,24.5,30.08,SW,225,2.5,4.0,49,0.00,,,0.00,WUHU216HW,2013-02-04 17:36:00,
2013-02-04 09:41:00,42.5,24.1,30.08,SSW,203,2.5,3.4,48,0.00,,,0.00,WUHU216HW,2013-02-04 17:41:00,
2013-02-04 09:46:00,42.8,24.5,30.08,SSW,203,1.6,3.6,48,0.00,,,0.00,WUHU216HW,2013-02-04 17:46:00,
2013-02-04 09:52:00,43.0,24.1,30.07,SW,225,0.2,3.6,47,0.00,,,0.00,WUHU216HW,2013-02-04 17:52:00,
2013-02-04 09:57:00,43.2,24.3,30.08,WSW,248,3.1,3.1,47,0.00,,,0.00,WUHU216HW,2013-02-04 17:57:00,
2013-02-04 10:02:00,43.6,24.6,30.07,SW,225,3.6,3.6,47,0.00,,,0.00,WUHU216HW,2013-02-04 18:02:00,
2013-02-04 10:07:00,43.9,24.4,30.08,SW,225,3.6,4.7,46,0.00,,,0.00,WUHU216HW,2013-02-04 18:07:00,
2013-02-04 10:12:00,44.5,24.3,30.08,WSW,248,4.0,5.4,45,0.00,,,0.00,WUHU216HW,2013-02-04 18:12:00,
2013-02-04 10:17:00,44.8,25.2,30.08,SSW,203,3.4,8.1,46,0.00,,,0.00,WUHU216HW,2013-02-04 18:17:00,
2013-02-04 10:22:00,45.0,24.9,30.08,SW,225,5.6,8.5,45,0.00,,,0.00,WUHU216HW,2013-02-04 18:22:00,
2013-02-04 10:27:00,45.0,24.3,30.07,WSW,248,4.3,8.5,44,0.00,,,0.00,WUHU216HW,2013-02-04 18:27:00,
2013-02-04 10:32:00,44.8,24.1,30.08,SW,225,6.5,6.5,44,0.00,,,0.00,WUHU216HW,2013-02-04 18:32:00,
2013-02-04 10:37:00,44.8,24.7,30.08,SSW,203,4.3,7.6,45,0.00,,,0.00,WUHU216HW,2013-02-04 18:37:00,
2013-02-04 10:42:00,44.6,24.5,30.07,SSE,158,2.5,7.6,45,0.00,,,0.00,WUHU216HW,2013-02-04 18:42:00,
2013-02-04 10:47:00,44.8,24.7,30.07,SW,225,9.2,9.2,45,0.00,,,0.00,WUHU216HW,2013-02-04 18:47:00,
2013-02-04 10:52:00,45.0,24.9,30.07,South,180,0.4,9.2,45,0.00,,,0.00,WUHU216HW,2013-02-04 18:52:00,
2013-02-04 10:57:00,45.0,24.3,30.07,SW,225,3.4,3.6,44,0.00,,,0.00,WUHU216HW,2013-02-04 18:57:00,
2013-02-04 11:02:00,45.4,24.6,30.08,SW,225,6.3,8.1,44,0.00,,,0.00,WUHU216HW,2013-02-04 19:02:00,
2013-02-04 11:07:00,45.5,24.8,30.07,South,180,5.1,8.1,44,0.00,,,0.00,WUHU216HW,2013-02-04 19:07:00,
2013-02-04 11:12:00,45.7,24.9,30.07,SSW,203,4.9,5.4,44,0.00,,,0.00,WUHU216HW,2013-02-04 19:12:00,
2013-02-04 11:17:00,45.9,24.6,30.07,SSW,203,5.4,5.4,43,0.00,,,0.00,WUHU216HW,2013-02-04 19:17:00,
2013-02-04 11:22:00,46.1,24.1,30.07,WSW,248,2.5,9.4,42,0.00,,,0.00,WUHU216HW,2013-02-04 19:22:00,
2013-02-04 11:27:00,46.3,23.8,30.06,SSW,203,4.9,9.4,41,0.00,,,0.00,WUHU216HW,2013-02-04 19:27:00,
2013-02-04 11:32:00,46.6,24.1,30.06,SE,135,0.4,7.2,41,0.00,,,0.00,WUHU216HW,2013-02-04 19:32:00,
2013-02-04 11:38:00,47.0,24.9,30.06,SSW,203,3.8,5.6,42,0.00,,,0.00,WUHU216HW,2013-02-04 19:38:00,
2013-02-04 11:43:00,47.3,25.3,30.06,SSW,203,6.3,6.3,42,0.00,,,0.00,WUHU216HW,2013-02-04 19:43:00,
2013-02-04 11:48:00,47.7,24.6,30.05,WSW,248,4.5,8.7,40,0.00,,,0.00,WUHU216HW,2013-02-04 19:48:00,
2013-02-04 11:53:00,47.9,24.7,30.05,SSW,203,5.8,8.7,40,0.00,,,0.00,WUHU216HW,2013-02-04 19:53:00,
2013-02-04 11:58:00,48.2,24.4,30.05,SW,225,2.7,8.3,39,0.00,,,0.00,WUHU216HW,2013-02-04 19:58:00,
2013-02-04 12:03:00,48.6,24.0,30.05,South,180,3.4,8.5,38,0.00,,,0.00,WUHU216HW,2013-02-04 20:03:00,
2013-02-04 12:08:00,48.8,24.9,30.04,WSW,248,2.0,8.5,39,0.00,,,0.00,WUHU216HW,2013-02-04 20:08:00,
2013-02-04 12:13:00,49.1,24.5,30.04,SSW,203,4.0,5.8,38,0.00,,,0.00,WUHU216HW,2013-02-04 20:13:00,
2013-02-04 12:18:00,49.5,24.9,30.04,SSW,203,3.8,5.8,38,0.00,,,0.00,WUHU216HW,2013-02-04 20:18:00,
2013-02-04 12:23:00,50.0,25.9,30.04,SSW,203,4.3,5.6,39,0.00,,,0.00,WUHU216HW,2013-02-04 20:23:00,
2013-02-04 12:28:00,50.4,25.6,30.04,SW,225,2.0,5.6,38,0.00,,,0.00,WUHU216HW,2013-02-04 20:28:00,
2013-02-04 12:33:00,50.6,26.5,30.03,SW,225,4.0,5.4,39,0.00,,,0.00,WUHU216HW,2013-02-04 20:33:00,
2013-02-04 12:38:00,50.8,26.7,30.03,SSW,203,5.4,5.4,39,0.00,,,0.00,WUHU216HW,2013-02-04 20:38:00,
2013-02-04 12:43:00,50.9,26.1,30.03,SSW,203,3.4,6.3,38,0.00,,,0.00,WUHU216HW,2013-02-04 20:43:00,
2013-02-04 12:48:00,51.3,26.4,30.03,South,180,3.6,6.3,38,0.00,,,0.00,WUHU216HW,2013-02-04 20:48:00,
2013-02-04 12:53:00,51.7,26.7,30.02,SSW,203,3.4,6.0,38,0.00,,,0.00,WUHU216HW,2013-02-04 20:53:00,
2013-02-04 12:58:00,51.8,26.2,30.02,South,180,4.7,6.0,37,0.00,,,0.00,WUHU216HW,2013-02-04 20:58:00,
2013-02-04 13:03:00,51.8,26.2,30.01,WSW,248,0.7,5.6,37,0.00,,,0.00,WUHU216HW,2013-02-04 21:03:00,
2013-02-04 13:08:00,51.7,26.0,30.01,WSW,248,1.8,5.8,37,0.00,,,0.00,WUHU216HW,2013-02-04 21:08:00,
2013-02-04 13:13:00,51.8,25.6,30.01,SSW,203,2.7,6.0,36,0.00,,,0.00,WUHU216HW,2013-02-04 21:13:00,
2013-02-04 13:18:00,51.7,26.0,30.01,SW,225,1.8,6.0,37,0.00,,,0.00,WUHU216HW,2013-02-04 21:18:00,
2013-02-04 13:23:00,51.5,23.9,30.01,ENE,68,1.1,5.4,34,0.00,,,0.00,WUHU216HW,2013-02-04 21:23:00,
2013-02-04 13:28:00,50.9,24.8,30.01,NW,315,3.1,3.8,36,0.00,,,0.00,WUHU216HW,2013-02-04 21:28:00,
2013-02-04 13:33:00,50.8,25.2,30.00,NW,315,1.1,3.1,37,0.00,,,0.00,WUHU216HW,2013-02-04 21:33:00,
2013-02-04 13:38:00,50.8,24.6,30.01,NW,315,0.9,2.2,36,0.00,,,0.00,WUHU216HW,2013-02-04 21:38:00,
2013-02-04 13:43:00,50.8,24.6,30.00,SSW,203,0.2,1.3,36,0.00,,,0.00,WUHU216HW,2013-02-04 21:43:00,
2013-02-04 13:49:00,50.8,25.2,30.00,South,180,0.4,1.3,37,0.00,,,0.00,WUHU216HW,2013-02-04 21:49:00,
2013-02-04 13:54:00,51.1,25.6,30.00,SSW,203,2.2,2.2,37,0.00,,,0.00,WUHU216HW,2013-02-04 21:54:00,
2013-02-04 13:59:00,51.3,26.4,30.00,SE,135,0.4,4.5,38,0.00,,,0.00,WUHU216HW,2013-02-04 21:59:00,
2013-02-04 14:04:00,51.1,26.3,30.00,SSE,158,2.0,4.5,38,0.00,,,0.00,WUHU216HW,2013-02-04 22:04:00,
2013-02-04 14:09:00,51.1,26.3,30.00,WSW,248,4.0,4.0,38,0.00,,,0.00,WUHU216HW,2013-02-04 22:09:00,
2013-02-04 14:14:00,51.3,26.4,30.00,South,180,2.7,4.0,38,0.00,,,0.00,WUHU216HW,2013-02-04 22:14:00,
2013-02-04 14:19:00,51.3,27.1,29.99,West,270,0.4,4.0,39,0.00,,,0.00,WUHU216HW,2013-02-04 22:19:00,
2013-02-04 14:24:00,51.3,26.4,29.99,NE,45,0.4,3.4,38,0.00,,,0.00,WUHU216HW,2013-02-04 22:24:00,
2013-02-04 14:29:00,51.1,25.6,29.99,NNW,338,0.0,2.0,37,0.00,,,0.00,WUHU216HW,2013-02-04 22:29:00,
2013-02-04 14:34:00,51.1,26.3,29.99,SE,135,1.8,2.0,38,0.00,,,0.00,WUHU216HW,2013-02-04 22:34:00,
2013-02-04 14:39:00,50.9,26.1,29.99,East,90,0.7,1.8,38,0.00,,,0.00,WUHU216HW,2013-02-04 22:39:00,
2013-02-04 14:44:00,51.1,26.9,29.99,SSE,158,0.4,1.8,39,0.00,,,0.00,WUHU216HW,2013-02-04 22:44:00,
2013-02-04 14:49:00,51.1,25.6,29.99,NE,45,1.1,2.5,37,0.00,,,0.00,WUHU216HW,2013-02-04 22:49:00,
2013-02-04 14:54:00,51.1,26.3,29.99,NE,45,3.1,3.1,38,0.00,,,0.00,WUHU216HW,2013-02-04 22:54:00,
2013-02-04 14:59:00,51.3,26.4,29.99,East,90,2.2,3.1,38,0.00,,,0.00,WUHU216HW,2013-02-04 22:59:00,
2013-02-04 15:04:00,51.3,27.1,29.99,ESE,113,2.5,3.6,39,0.01,,,0.00,WUHU216HW,2013-02-04 23:04:00,
2013-02-04 15:09:00,51.1,26.3,29.99,North,0,2.2,3.6,38,0.01,,,0.01,WUHU216HW,2013-02-04 23:09:00,
2013-02-04 15:14:00,51.1,26.9,29.99,East,90,0.9,3.1,39,0.01,,,0.01,WUHU216HW,2013-02-04 23:14:00,
2013-02-04 15:19:00,51.1,26.9,29.99,East,90,0.4,4.5,39,0.01,,,0.01,WUHU216HW,2013-02-04 23:19:00,
2013-02-04 15:24:00,50.9,26.1,29.99,NE,45,0.7,4.5,38,0.01,,,0.01,WUHU216HW,2013-02-04 23:24:00,
2013-02-04 15:29:00,50.8,26.7,29.99,North,0,3.8,3.8,39,0.01,,,0.01,WUHU216HW,2013-02-04 23:29:00,
2013-02-04 15:34:00,50.8,26.7,29.99,SSE,158,0.4,3.8,39,0.01,,,0.01,WUHU216HW,2013-02-04 23:34:00,
2013-02-04 15:40:00,50.8,26.7,29.99,West,270,2.0,3.4,39,0.01,,,0.01,WUHU216HW,2013-02-04 23:40:00,
2013-02-04 15:45:00,50.8,27.3,29.99,ENE,68,0.2,2.0,40,0.01,,,0.01,WUHU216HW,2013-02-04 23:45:00,
2013-02-04 15:50:00,50.8,27.3,29.99,SSE,158,0.4,1.8,40,0.01,,,0.01,WUHU216HW,2013-02-04 23:50:00,
2013-02-04 15:55:00,50.4,27.0,29.99,SSW,203,0.7,1.1,40,0.01,,,0.01,WUHU216HW,2013-02-04 23:55:00,
2013-02-04 16:00:00,50.4,27.0,29.99,NNW,338,0.4,1.6,40,0.01,,,0.01,WUHU216HW,2013-02-05 00:00:00,
2013-02-04 16:05:00,50.2,26.8,29.99,ENE,68,0.0,1.6,40,0.00,,,0.01,WUHU216HW,2013-02-05 00:05:00,
2013-02-04 16:10:00,50.0,26.6,29.99,NNW,338,1.1,2.0,40,0.00,,,0.01,WUHU216HW,2013-02-05 00:10:00,
2013-02-04 16:15:00,49.7,26.9,29.98,SW,225,0.0,2.0,41,0.00,,,0.01,WUHU216HW,2013-02-05 00:15:00,
2013-02-04 16:20:00,49.3,26.6,29.98,East,90,0.4,1.8,41,0.00,,,0.01,WUHU216HW,2013-02-05 00:20:00,
2013-02-04 16:25:00,49.3,27.1,29.98,South,180,0.0,0.7,42,0.00,,,0.01,WUHU216HW,2013-02-05 00:25:00,
2013-02-04 16:30:00,49.0,26.7,29.98,NE,45,0.0,0.4,42,0.00,,,0.01,WUHU216HW,2013-02-05 00:30:00,
2013-02-04 16:35:00,48.8,26.7,29.98,NNE,23,2.0,2.0,42,0.00,,,0.01,WUHU216HW,2013-02-05 00:35:00,
2013-02-04 16:40:00,48.6,27.0,29.97,ENE,68,2.0,2.7,43,0.00,,,0.01,WUHU216HW,2013-02-05 00:40:00,
2013-02-04 16:45:00,48.4,26.8,29.98,NNE,23,0.9,2.7,43,0.00,,,0.01,WUHU216HW,2013-02-05 00:45:00,
2013-02-04 16:50:00,48.1,26.5,29.97,NNW,338,0.0,1.3,43,0.00,,,0.01,WUHU216HW,2013-02-05 00:50:00,
2013-02-04 16:55:00,47.9,26.8,29.98,West,270,0.0,1.1,44,0.00,,,0.01,WUHU216HW,2013-02-05 00:55:00,
2013-02-04 17:00:00,47.7,26.7,29.97,SW,225,0.0,1.1,44,0.00,,,0.01,WUHU216HW,2013-02-05 01:00:00,
2013-02-04 17:05:00,47.5,26.6,29.97,NNW,338,0.4,0.4,44,0.00,,,0.01,WUHU216HW,2013-02-05 01:05:00,
2013-02-04 17:10:00,47.3,26.9,29.97,NW,315,0.0,0.4,45,0.00,,,0.01,WUHU216HW,2013-02-05 01:10:00,
2013-02-04 17:16:00,47.2,26.7,29.98,NW,315,0.0,0.0,45,0.00,,,0.01,WUHU216HW,2013-02-05 01:16:00,
2013-02-04 17:21:00,47.0,26.6,29.98,North,0,0.4,0.4,45,0.00,,,0.01,WUHU216HW,2013-02-05 01:21:00,
2013-02-04 17:26:00,46.6,26.3,29.98,North,0,0.0,0.4,45,0.00,,,0.01,WUHU216HW,2013-02-05 01:26:00,
2013-02-04 17:31:00,46.4,26.6,29.98,North,0,0.4,1.1,46,0.00,,,0.01,WUHU216HW,2013-02-05 01:31:00,
2013-02-04 17:36:00,46.3,26.5,29.98,NNE,23,0.2,1.1,46,0.00,,,0.01,WUHU216HW,2013-02-05 01:36:00,
2013-02-04 17:41:00,46.1,26.3,29.98,SSE,158,0.0,0.4,46,0.00,,,0.01,WUHU216HW,2013-02-05 01:41:00,
2013-02-04 17:46:00,45.9,26.7,29.98,SSW,203,0.2,0.4,47,0.00,,,0.01,WUHU216HW,2013-02-05 01:46:00,
2013-02-04 17:51:00,45.7,26.6,29.97,East,90,0.0,0.7,47,0.00,,,0.01,WUHU216HW,2013-02-05 01:51:00,
2013-02-04 17:56:00,45.5,26.4,29.97,ENE,68,0.4,0.7,47,0.00,,,0.01,WUHU216HW,2013-02-05 01:56:00,
2013-02-04 18:01:00,45.4,26.7,29.97,SSE,158,0.2,1.1,48,0.00,,,0.01,WUHU216HW,2013-02-05 02:01:00,
2013-02-04 18:06:00,45.2,26.6,29.97,ESE,113,0.4,1.3,48,0.00,,,0.01,WUHU216HW,2013-02-05 02:06:00,
2013-02-04 18:11:00,45.0,26.5,29.98,ESE,113,0.4,1.3,48,0.00,,,0.01,WUHU216HW,2013-02-05 02:11:00,
2013-02-04 18:16:00,44.8,26.8,29.98,ENE,68,0.4,0.7,49,0.00,,,0.01,WUHU216HW,2013-02-05 02:16:00,
2013-02-04 18:21:00,44.5,26.5,29.98,East,90,0.4,0.4,49,0.00,,,0.01,WUHU216HW,2013-02-05 02:21:00,
2013-02-04 18:26:00,44.3,26.3,29.98,WNW,293,0.7,0.9,49,0.00,,,0.01,WUHU216HW,2013-02-05 02:26:00,
2013-02-04 18:31:00,44.1,26.7,29.98,NW,315,0.0,0.9,50,0.00,,,0.01,WUHU216HW,2013-02-05 02:31:00,
2013-02-04 18:36:00,43.9,26.6,29.98,NW,315,0.2,0.4,50,0.00,,,0.01,WUHU216HW,2013-02-05 02:36:00,
2013-02-04 18:41:00,43.6,27.1,29.98,North,0,0.4,0.9,52,0.00,,,0.01,WUHU216HW,2013-02-05 02:41:00,
2013-02-04 18:46:00,43.2,26.3,29.98,North,0,0.0,0.9,51,0.00,,,0.01,WUHU216HW,2013-02-05 02:46:00,
2013-02-04 18:51:00,43.0,26.6,29.98,ESE,113,0.2,0.9,52,0.00,,,0.01,WUHU216HW,2013-02-05 02:51:00,
2013-02-04 18:56:00,42.8,26.5,29.97,WSW,248,0.0,1.1,52,0.00,,,0.01,WUHU216HW,2013-02-05 02:56:00,
2013-02-04 19:01:00,42.8,26.8,29.98,NE,45,0.0,1.1,53,0.00,,,0.01,WUHU216HW,2013-02-05 03:01:00,
2013-02-04 19:07:00,42.5,26.6,29.98,NW,315,0.0,1.1,53,0.00,,,0.01,WUHU216HW,2013-02-05 03:07:00,
2013-02-04 19:12:00,42.3,25.9,29.97,NNW,338,0.0,0.2,52,0.00,,,0.01,WUHU216HW,2013-02-05 03:12:00,
2013-02-04 19:17:00,42.1,26.2,29.97,North,0,0.0,0.7,53,0.00,,,0.01,WUHU216HW,2013-02-05 03:17:00,
2013-02-04 19:22:00,42.1,25.8,29.97,West,270,0.2,0.7,52,0.00,,,0.01,WUHU216HW,2013-02-05 03:22:00,
2013-02-04 19:27:00,41.9,25.6,29.96,SSE,158,1.1,1.1,52,0.00,,,0.01,WUHU216HW,2013-02-05 03:27:00,
2013-02-04 19:32:00,41.9,25.6,29.96,East,90,0.0,1.1,52,0.00,,,0.01,WUHU216HW,2013-02-05 03:32:00,
2013-02-04 19:37:00,41.8,25.8,29.96,East,90,0.4,0.9,53,0.00,,,0.01,WUHU216HW,2013-02-05 03:37:00,
2013-02-04 19:42:00,41.8,25.4,29.96,NNE,23,0.0,0.4,52,0.00,,,0.01,WUHU216HW,2013-02-05 03:42:00,
2013-02-04 19:47:00,41.8,25.4,29.96,SSW,203,0.2,0.2,52,0.00,,,0.01,WUHU216HW,2013-02-05 03:47:00,
2013-02-04 19:52:00,41.6,25.2,29.96,West,270,0.4,1.8,52,0.00,,,0.01,WUHU216HW,2013-02-05 03:52:00,
2013-02-04 19:57:00,41.8,24.9,29.96,NNW,338,0.4,2.5,51,0.00,,,0.01,WUHU216HW,2013-02-05 03:57:00,
2013-02-04 20:02:00,41.9,25.1,29.96,NNW,338,1.3,2.5,51,0.00,,,0.01,WUHU216HW,2013-02-05 04:02:00,
2013-02-04 20:07:00,41.9,25.1,29.96,NW,315,0.7,3.1,51,0.00,,,0.01,WUHU216HW,2013-02-05 04:07:00,
2013-02-04 20:12:00,41.8,24.9,29.96,West,270,0.4,3.1,51,0.00,,,0.01,WUHU216HW,2013-02-05 04:12:00,
2013-02-04 20:17:00,41.9,25.1,29.95,NW,315,0.9,1.8,51,0.00,,,0.01,WUHU216HW,2013-02-05 04:17:00,
2013-02-04 20:22:00,42.1,25.3,29.95,West,270,0.7,1.8,51,0.00,,,0.01,WUHU216HW,2013-02-05 04:22:00,
2013-02-04 20:27:00,41.9,24.7,29.95,WSW,248,1.3,1.3,50,0.00,,,0.01,WUHU216HW,2013-02-05 04:27:00,
2013-02-04 20:32:00,41.6,24.3,29.95,WSW,248,1.8,2.5,50,0.00,,,0.01,WUHU216HW,2013-02-05 04:32:00,
2013-02-04 20:37:00,41.2,24.4,29.95,WSW,248,3.4,3.4,51,0.00,,,0.01,WUHU216HW,2013-02-05 04:37:00,
2013-02-04 20:42:00,40.9,24.0,29.94,WSW,248,2.5,3.4,51,0.00,,,0.01,WUHU216HW,2013-02-05 04:42:00,
2013-02-04 20:47:00,40.7,23.9,29.94,SW,225,2.5,2.7,51,0.00,,,0.01,WUHU216HW,2013-02-05 04:47:00,
2013-02-04 20:52:00,40.5,23.8,29.95,West,270,3.4,4.7,51,0.00,,,0.01,WUHU216HW,2013-02-05 04:52:00,
2013-02-04 20:57:00,40.3,23.6,29.95,WSW,248,2.2,4.7,51,0.00,,,0.01,WUHU216HW,2013-02-05 04:57:00,
2013-02-04 21:00:00,40.3,23.6,29.95,West,270,4.3,4.9,51,0.00,,,0.01,WUHU216HW,2013-02-05 05:00:00,
2013-02-04 21:01:00,40.3,23.6,29.95,SW,225,2.5,4.9,51,0.00,,,0.01,WUHU216HW,2013-02-05 05:01:00,
2013-02-04 21:06:00,40.3,23.6,29.95,West,270,4.0,5.1,51,0.00,,,0.01,WUHU216HW,2013-02-05 05:06:00,
2013-02-04 21:11:00,40.1,23.0,29.94,WSW,248,4.7,5.4,50,0.00,,,0.01,WUHU216HW,2013-02-05 05:11:00,
2013-02-04 21:16:00,40.0,22.8,29.94,SW,225,2.7,5.4,50,0.00,,,0.01,WUHU216HW,2013-02-05 05:16:00,
2013-02-04 21:21:00,40.0,22.8,29.94,West,270,1.8,5.1,50,0.00,,,0.01,WUHU216HW,2013-02-05 05:21:00,
2013-02-04 21:26:00,40.0,22.8,29.94,SW,225,4.7,4.7,50,0.00,,,0.01,WUHU216HW,2013-02-05 05:26:00,
2013-02-04 21:31:00,40.0,22.2,29.94,SW,225,1.8,4.7,49,0.00,,,0.01,WUHU216HW,2013-02-05 05:31:00,
2013-02-04 21:36:00,40.0,22.2,29.94,SSW,203,3.6,4.7,49,0.00,,,0.01,WUHU216HW,2013-02-05 05:36:00,
2013-02-04 21:41:00,39.8,22.2,29.94,SSW,203,1.8,4.0,49,0.00,,,0.01,WUHU216HW,2013-02-05 05:41:00,
2013-02-04 21:46:00,39.6,22.0,29.93,SW,225,5.6,7.8,49,0.00,,,0.01,WUHU216HW,2013-02-05 05:46:00,
2013-02-04 21:51:00,39.6,22.0,29.93,SW,225,2.5,7.8,49,0.00,,,0.01,WUHU216HW,2013-02-05 05:51:00,
2013-02-04 21:56:00,39.6,22.0,29.93,WSW,248,1.8,5.8,49,0.00,,,0.01,WUHU216HW,2013-02-05 05:56:00,
2013-02-04 22:01:00,39.6,22.0,29.93,SSW,203,4.5,4.5,49,0.00,,,0.01,WUHU216HW,2013-02-05 06:01:00,
2013-02-04 22:06:00,39.4,21.2,29.93,SW,225,3.1,6.0,48,0.00,,,0.01,WUHU216HW,2013-02-05 06:06:00,
2013-02-04 22:11:00,39.6,22.0,29.93,West,270,1.8,6.0,49,0.00,,,0.01,WUHU216HW,2013-02-05 06:11:00,
2013-02-04 22:16:00,39.6,22.0,29.93,SW,225,2.0,2.9,49,0.00,,,0.01,WUHU216HW,2013-02-05 06:16:00,
2013-02-04 22:21:00,39.6,21.4,29.92,West,270,1.3,2.7,48,0.00,,,0.01,WUHU216HW,2013-02-05 06:21:00,
2013-02-04 22:26:00,39.4,20.7,29.92,North,0,0.4,4.0,47,0.00,,,0.01,WUHU216HW,2013-02-05 06:26:00,
2013-02-04 22:31:00,39.4,20.7,29.92,SSW,203,4.9,4.9,47,0.00,,,0.01,WUHU216HW,2013-02-05 06:31:00,
2013-02-04 22:36:00,39.6,20.9,29.92,NW,315,2.0,4.9,47,0.00,,,0.01,WUHU216HW,2013-02-05 06:36:00,
2013-02-04 22:41:00,39.8,21.1,29.92,SW,225,4.7,4.7,47,0.00,,,0.01,WUHU216HW,2013-02-05 06:41:00,
2013-02-04 22:46:00,40.0,20.7,29.92,SSW,203,1.1,4.7,46,0.00,,,0.01,WUHU216HW,2013-02-05 06:46:00,
2013-02-04 22:51:00,40.0,20.7,29.91,WSW,248,0.9,4.0,46,0.00,,,0.01,WUHU216HW,2013-02-05 06:51:00,
2013-02-04 22:56:00,39.8,20.5,29.91,SSW,203,2.5,4.0,46,0.00,,,0.01,WUHU216HW,2013-02-05 06:56:00,
2013-02-04 23:01:00,39.8,20.0,29.92,SW,225,0.4,2.5,45,0.00,,,0.01,WUHU216HW,2013-02-05 07:01:00,
2013-02-04 23:06:00,40.0,20.7,29.92,South,180,0.9,3.4,46,0.00,,,0.01,WUHU216HW,2013-02-05 07:06:00,
2013-02-04 23:12:00,40.0,20.7,29.92,SSW,203,2.7,3.4,46,0.00,,,0.01,WUHU216HW,2013-02-05 07:12:00,
2013-02-04 23:17:00,40.1,20.3,29.92,South,180,1.8,3.8,45,0.00,,,0.01,WUHU216HW,2013-02-05 07:17:00,
2013-02-04 23:22:00,40.3,20.5,29.92,NNE,23,1.1,4.7,45,0.00,,,0.01,WUHU216HW,2013-02-05 07:22:00,
2013-02-04 23:27:00,40.5,20.2,29.91,South,180,0.7,4.7,44,0.00,,,0.01,WUHU216HW,2013-02-05 07:27:00,
2013-02-04 23:32:00,40.5,20.7,29.91,NE,45,0.4,1.6,45,0.00,,,0.01,WUHU216HW,2013-02-05 07:32:00,
2013-02-04 23:37:00,40.5,20.7,29.91,WSW,248,1.3,1.6,45,0.00,,,0.01,WUHU216HW,2013-02-05 07:37:00,
2013-02-04 23:42:00,40.3,20.0,29.91,North,0,0.4,1.6,44,0.00,,,0.01,WUHU216HW,2013-02-05 07:42:00,
2013-02-04 23:47:00,40.5,20.2,29.91,ESE,113,3.4,3.4,44,0.00,,,0.01,WUHU216HW,2013-02-05 07:47:00,
2013-02-04 23:52:00,40.7,20.8,29.91,SE,135,1.6,3.4,45,0.00,,,0.01,WUHU216HW,2013-02-05 07:52:00,
2013-02-04 23:57:00,40.7,20.4,29.91,SSE,158,2.9,2.9,44,0.00,,,0.01,WUHU216HW,2013-02-05 07:57:00,